Terminal Aerodrome Forecast
Issued by NWS

Home | Current Version | Previous Version | Graphics & Text | Print | Product List | Glossary On
Versions: 1 2 3 4 5 6 7 8 9 10 11 12 13 14 15 16 17 18 19 20 21 22 23 24 25 26 27 28 29 30 31 32 33 34
000
FTUS43 KABR 231735
TAFATY
TAF
KATY 231735Z 2318/2418 11015G20KT 5SM -RA BR OVC008
     FM231900 10016KT 5SM BR OVC015
     FM232200 11017G24KT P6SM BKN015
     FM240000 11017G24KT P6SM BKN010
     FM240800 12016KT P6SM SCT010
     FM241400 15015KT P6SM OVC025=

USA.gov is the U.S. government's official web portal to all federal, state and local government web resources and services.